RYR7YZ EGBB-EPMO

Flight info

Callsign RYR7YZ
Flight time N/A
Altitude 37000
Route UNGAP P155 SIVDA P137 REDFA L620 PAM DCT HLZ DCT SUBIX DCT OBOKU P150 DOSIX
Aircraft B738/M-SDE3FGILRWY/SB1

Departure

Time 2026-04-28 16:17
Airport Birmingham Airport (EGBB)

Arrival

Time N/A
Airport Warsaw Modlin Airport (EPMO)
Time Latitude Longitude Altitude Speed Heading
2026-04-28 15:27 52.45298 -1.73804 320 ft 0 kts 146°
2026-04-28 16:06 52.45304 -1.73811 322 ft 4 kts 144°
2026-04-28 16:07 52.45325 -1.73837 319 ft 4 kts 144°
2026-04-28 16:07 52.45348 -1.73859 319 ft 4 kts 169°
2026-04-28 16:07 52.45365 -1.73851 319 ft 0 kts 236°
2026-04-28 16:11 52.45364 -1.73854 319 ft 1 kts 236°
2026-04-28 16:11 52.45333 -1.73929 322 ft 9 kts 236°
2026-04-28 16:12 52.45334 -1.74113 322 ft 0 kts 297°
2026-04-28 16:12 52.45333 -1.74117 322 ft 1 kts 274°
2026-04-28 16:13 52.45228 -1.74102 322 ft 17 kts 146°
2026-04-28 16:13 52.45120 -1.73981 322 ft 19 kts 146°
2026-04-28 16:13 52.44904 -1.73740 322 ft 15 kts 146°
2026-04-28 16:14 52.44829 -1.73685 322 ft 6 kts 182°
2026-04-28 16:14 52.44743 -1.73725 321 ft 7 kts 195°
2026-04-28 16:15 52.44600 -1.73603 322 ft 17 kts 147°
2026-04-28 16:15 52.44505 -1.73500 323 ft 13 kts 146°
2026-04-28 16:15 52.44431 -1.73418 323 ft 13 kts 148°
2026-04-28 16:16 52.44331 -1.73529 323 ft 3 kts 238°
2026-04-28 16:16 52.44317 -1.73566 323 ft 6 kts 239°
2026-04-28 16:17 52.44413 -1.73721 322 ft 23 kts 326°
2026-04-28 16:17 52.44751 -1.74094 324 ft 96 kts 327°
2026-04-28 16:17 52.45483 -1.74918 353 ft 154 kts 333°
2026-04-28 16:17 52.46405 -1.75923 989 ft 160 kts 332°
2026-04-28 16:18 52.47337 -1.76942 1810 ft 165 kts 334°
2026-04-28 16:18 52.48353 -1.78052 2287 ft 185 kts 334°
2026-04-28 16:18 52.49473 -1.79224 2861 ft 196 kts 341°
2026-04-28 16:18 52.50786 -1.79757 3353 ft 198 kts
2026-04-28 16:19 52.52137 -1.79300 3889 ft 201 kts 30°
2026-04-28 16:19 52.52901 -1.78470 4380 ft 197 kts 47°
2026-04-28 16:19 52.53689 -1.76599 4973 ft 206 kts 71°
2026-04-28 16:19 52.53856 -1.74257 5663 ft 209 kts 95°
2026-04-28 16:20 52.53493 -1.71103 6038 ft 212 kts 100°
2026-04-28 16:20 52.53175 -1.68687 6032 ft 219 kts 102°
2026-04-28 16:20 52.52483 -1.66434 5982 ft 231 kts 128°
2026-04-28 16:20 52.51702 -1.65104 6059 ft 248 kts 131°
2026-04-28 16:21 52.50445 -1.63079 6045 ft 257 kts 131°
2026-04-28 16:21 52.49178 -1.61062 6061 ft 257 kts 131°
2026-04-28 16:21 52.47900 -1.59024 6146 ft 258 kts 131°
2026-04-28 16:21 52.46618 -1.56956 6851 ft 259 kts 131°
2026-04-28 16:22 52.45348 -1.54892 7789 ft 257 kts 131°
2026-04-28 16:22 52.44072 -1.52820 8662 ft 260 kts 131°
2026-04-28 16:22 52.42782 -1.50718 9517 ft 263 kts 131°
2026-04-28 16:22 52.41479 -1.48592 10391 ft 266 kts 131°
2026-04-28 16:23 52.40130 -1.46395 10844 ft 285 kts 131°
2026-04-28 16:23 52.38660 -1.44002 11101 ft 309 kts 131°
2026-04-28 16:23 52.37136 -1.41452 11696 ft 316 kts 126°
2026-04-28 16:23 52.36120 -1.38306 12492 ft 313 kts 105°
2026-04-28 16:24 52.35760 -1.34809 13432 ft 312 kts 91°
2026-04-28 16:24 52.35737 -1.31251 14343 ft 315 kts 89°
2026-04-28 16:24 52.35771 -1.27651 15170 ft 317 kts 88°
2026-04-28 16:24 52.35813 -1.24030 16042 ft 320 kts 88°
2026-04-28 16:25 52.35848 -1.20413 16906 ft 322 kts 88°
2026-04-28 16:25 52.35875 -1.16735 17774 ft 325 kts 88°
2026-04-28 16:25 52.35894 -1.13020 18623 ft 328 kts 88°
2026-04-28 16:25 52.35908 -1.09274 19343 ft 331 kts 88°
2026-04-28 16:26 52.35918 -1.05502 20086 ft 333 kts 87°
2026-04-28 16:26 52.35925 -1.01709 20837 ft 335 kts 87°
2026-04-28 16:26 52.35930 -0.97891 21544 ft 337 kts 87°
2026-04-28 16:26 52.35934 -0.94028 22212 ft 341 kts 87°
2026-04-28 16:27 52.35936 -0.90131 22898 ft 344 kts 87°
2026-04-28 16:27 52.35937 -0.86205 23610 ft 346 kts 87°
2026-04-28 16:27 52.35935 -0.78281 24800 ft 350 kts 87°
2026-04-28 16:28 52.35932 -0.74294 25398 ft 351 kts 87°
2026-04-28 16:28 52.35927 -0.70293 25978 ft 353 kts 87°
2026-04-28 16:28 52.35921 -0.66279 26537 ft 354 kts 87°
2026-04-28 16:28 52.35912 -0.62231 27092 ft 356 kts 87°
2026-04-28 16:29 52.35892 -0.54093 28127 ft 359 kts 87°
2026-04-28 16:29 52.35867 -0.45930 29111 ft 363 kts 87°
2026-04-28 16:30 52.35852 -0.41784 29591 ft 365 kts 87°
2026-04-28 16:30 52.35836 -0.37624 30072 ft 367 kts 87°
2026-04-28 16:30 52.35818 -0.33449 30493 ft 368 kts 87°
2026-04-28 16:30 52.35800 -0.29248 30825 ft 371 kts 87°
2026-04-28 16:31 52.35779 -0.25006 31131 ft 374 kts 87°
2026-04-28 16:31 52.35755 -0.20743 31506 ft 375 kts 87°
2026-04-28 16:31 52.35730 -0.16481 31952 ft 374 kts 87°
2026-04-28 16:31 52.35703 -0.12234 32372 ft 374 kts 87°
2026-04-28 16:32 52.35676 -0.07976 32746 ft 375 kts 87°
2026-04-28 16:32 52.35618 0.00406 33534 ft 375 kts 88°
2026-04-28 16:32 52.35502 0.04684 33850 ft 379 kts 92°
2026-04-28 16:33 52.35157 0.08970 34213 ft 381 kts 94°
2026-04-28 16:33 52.34901 0.11804 34466 ft 380 kts 95°
2026-04-28 16:33 52.34371 0.17484 34832 ft 383 kts 95°
2026-04-28 16:33 52.33968 0.21808 35029 ft 386 kts 95°
2026-04-28 16:34 52.33566 0.26154 35282 ft 388 kts 95°
2026-04-28 16:34 52.33166 0.30523 35564 ft 389 kts 95°
2026-04-28 16:34 52.32766 0.34906 35791 ft 391 kts 95°